This is the latest recevied weather packets stored in our database for station/object DJ9MA-10. If no packets are shown the sender has not sent any weather packets the latest 10 day(s).
| Time | Temp. | Humidity | Pressure | Rain* | Wind** | Luminosity | Snow |
|---|---|---|---|---|---|---|---|
| 1777499929 | 13.89° C | 43% | 972.1 hPa | - | - | - | - |
| 1777499029 | 14.44° C | 42% | 972 hPa | - | - | - | - |
| 1777498129 | 14.44° C | 41% | 971.8 hPa | - | - | - | - |
| 1777497229 | 14.44° C | 40% | 971.6 hPa | - | - | - | - |
| 1777496329 | 15° C | 39% | 971.5 hPa | - | - | - | - |
| 1777495429 | 15° C | 39% | 971.4 hPa | - | - | - | - |
| 1777494529 | 15.56° C | 39% | 971.4 hPa | - | - | - | - |
| 1777493629 | 16.11° C | 39% | 971.2 hPa | - | - | - | - |
| 1777492729 | 16.11° C | 39% | 971 hPa | - | - | - | - |
| 1777491829 | 16.67° C | 39% | 970.9 hPa | - | - | - | - |
| 1777490929 | 17.22° C | 38% | 970.5 hPa | - | - | - | - |
| 1777490029 | 17.22° C | 38% | 970.4 hPa | - | - | - | - |
| 1777489128 | 17.78° C | 37% | 970.2 hPa | - | - | - | - |
| 1777488228 | 15.56° C | 39% | 970 hPa | - | - | - | - |
| 1777487328 | 16.11° C | 39% | 969.7 hPa | - | - | - | - |
| 1777486428 | 16.11° C | 39% | 969.4 hPa | - | - | - | - |
| 1777485528 | 16.67° C | 38% | 969.2 hPa | - | - | - | - |
| 1777484628 | 17.78° C | 38% | 969 hPa | - | - | - | - |
| 1777483728 | 17.78° C | 37% | 968.8 hPa | - | - | - | - |
| 1777482828 | 18.33° C | 37% | 968.6 hPa | - | - | - | - |
| 1777481928 | 18.89° C | 38% | 968.5 hPa | - | - | - | - |
| 1777481028 | 18.89° C | 37% | 968.3 hPa | - | - | - | - |
| 1777480128 | 19.44° C | 39% | 968.3 hPa | - | - | - | - |
| 1777479228 | 20° C | 39% | 968.2 hPa | - | - | - | - |
| 1777478328 | 20° C | 38% | 968.2 hPa | - | - | - | - |
* Rain since midnight (hover to see other rain measurements)
** Current wind speed in m/s (hover to see current wind gust speed)